Previsão horária em Abertridwr

Hoje, 20 Janeiro, Quarta-feira

Tempo Temperatura Precipitação Vento Pressão Humidade
00:00 +10°C° 0 mm 9 m/s 732 mmHg 95%
01:00 +10°C° 2.6 mm 9 m/s 731 mmHg 95%
02:00 +9°C° 2.6 mm 10 m/s 730 mmHg 95%
03:00 +9°C° 2.6 mm 10 m/s 730 mmHg 95%
04:00 +9°C° 1.4 mm 10 m/s 729 mmHg 94%
05:00 +9°C° 1.4 mm 10 m/s 729 mmHg 93%
06:00 +9°C° 1.4 mm 10 m/s 728 mmHg 93%
07:00 +8°C° 0.8 mm 9 m/s 728 mmHg 93%
08:00 +8°C° 0.8 mm 9 m/s 727 mmHg 94%
09:00 +8°C° 0.8 mm 9 m/s 726 mmHg 95%
10:00 +8°C° 1.5 mm 9 m/s 726 mmHg 94%
11:00 +8°C° 1.5 mm 10 m/s 725 mmHg 94%
12:00 +8°C° 1.5 mm 10 m/s 725 mmHg 93%
13:00 +8°C° 1.1 mm 10 m/s 724 mmHg 92%
14:00 +8°C° 1.1 mm 10 m/s 723 mmHg 91%
15:00 +8°C° 1.1 mm 10 m/s 723 mmHg 90%
16:00 +8°C° 0.4 mm 10 m/s 722 mmHg 90%
17:00 +8°C° 0.4 mm 10 m/s 721 mmHg 91%
18:00 +7°C° 0.4 mm 9 m/s 721 mmHg 91%
19:00 +6°C° 3.2 mm 9 m/s 720 mmHg 92%
20:00 +6°C° 3.2 mm 9 m/s 719 mmHg 92%
21:00 +5°C° 3.2 mm 10 m/s 719 mmHg 92%
22:00 +3°C° 0.4 mm 9 m/s 720 mmHg 92%
23:00 +2°C° 0.4 mm 9 m/s 721 mmHg 92%

Amanhã, 21 Janeiro, Quinta-feira

Tempo Temperatura Precipitação Vento Pressão Humidade
00:00 0°C° 0.4 mm 9 m/s 722 mmHg 92%
01:00 0°C° 0.1 mm 9 m/s 723 mmHg 89%
02:00 0°C° 0.1 mm 9 m/s 724 mmHg 85%
03:00 0°C° 0.1 mm 9 m/s 725 mmHg 82%
04:00 +1°C° 0.1 mm 9 m/s 725 mmHg 82%
05:00 +1°C° 0.1 mm 9 m/s 725 mmHg 81%
06:00 +1°C° 0.1 mm 10 m/s 726 mmHg 80%
07:00 +1°C° 0.2 mm 10 m/s 726 mmHg 79%
08:00 +1°C° 0.2 mm 10 m/s 726 mmHg 78%
09:00 +1°C° 0.2 mm 10 m/s 726 mmHg 77%
10:00 +2°C° 0 mm 9 m/s 726 mmHg 75%
11:00 +2°C° 0 mm 9 m/s 727 mmHg 74%
12:00 +4°C° 0 mm 8 m/s 727 mmHg 72%
13:00 +4°C° 0 mm 8 m/s 727 mmHg 73%
14:00 +4°C° 0 mm 7 m/s 727 mmHg 74%
15:00 +4°C° 0 mm 6 m/s 726 mmHg 74%
16:00 +3°C° 0 mm 6 m/s 726 mmHg 79%
17:00 +2°C° 0 mm 5 m/s 727 mmHg 84%
18:00 +1°C° 0 mm 5 m/s 727 mmHg 88%
19:00 0°C° 0 mm 4 m/s 727 mmHg 89%
20:00 0°C° 0 mm 4 m/s 727 mmHg 90%
21:00 0°C° 0 mm 3 m/s 728 mmHg 91%
22:00 0°C° 0 mm 3 m/s 728 mmHg 90%
23:00 0°C° 0 mm 3 m/s 728 mmHg 89%

Depois de amanhã, 22 Janeiro, Sexta-feira

Tempo Temperatura Precipitação Vento Pressão Humidade
00:00 0°C° 0 mm 3 m/s 729 mmHg 88%
01:00 0°C° 0 mm 3 m/s 729 mmHg 88%
02:00 0°C° 0 mm 3 m/s 729 mmHg 87%
03:00 0°C° 0 mm 3 m/s 729 mmHg 86%
04:00 0°C° 0 mm 3 m/s 729 mmHg 87%
05:00 0°C° 0 mm 3 m/s 729 mmHg 87%
06:00 0°C° 0 mm 3 m/s 729 mmHg 88%
07:00 0°C° 0 mm 3 m/s 730 mmHg 87%
08:00 +1°C° 0 mm 2 m/s 730 mmHg 87%
09:00 +1°C° 0 mm 2 m/s 731 mmHg 87%
10:00 +1°C° 0 mm 3 m/s 731 mmHg 82%
11:00 +3°C° 0 mm 3 m/s 731 mmHg 77%
12:00 +4°C° 0 mm 4 m/s 732 mmHg 72%
13:00 +4°C° 0 mm 4 m/s 732 mmHg 72%
14:00 +4°C° 0 mm 4 m/s 732 mmHg 72%
15:00 +4°C° 0 mm 4 m/s 731 mmHg 73%
16:00 +3°C° 0 mm 3 m/s 732 mmHg 77%
17:00 +1°C° 0 mm 3 m/s 732 mmHg 82%
18:00 +1°C° 0 mm 2 m/s 732 mmHg 87%
19:00 +1°C° 0 mm 2 m/s 732 mmHg 86%
20:00 +1°C° 0 mm 2 m/s 732 mmHg 86%
21:00 +2°C° 0 mm 1 m/s 733 mmHg 85%
22:00 +2°C° 0 mm 1 m/s 733 mmHg 84%
23:00 +2°C° 0 mm 1 m/s 733 mmHg 83%

23 Janeiro, Sábado

Tempo Temperatura Precipitação Vento Pressão Humidade
00:00 +2°C° 0 mm 1 m/s 733 mmHg 81%
01:00 +2°C° 0.1 mm 1 m/s 733 mmHg 83%
02:00 +1°C° 0.1 mm 1 m/s 733 mmHg 85%
03:00 +1°C° 0.1 mm 1 m/s 733 mmHg 86%
04:00 -1°C° 0 mm 2 m/s 733 mmHg 87%
05:00 -1°C° 0 mm 2 m/s 734 mmHg 87%
06:00 -1°C° 0 mm 2 m/s 734 mmHg 88%
07:00 -1°C° 0 mm 2 m/s 734 mmHg 86%
08:00 -1°C° 0 mm 2 m/s 735 mmHg 85%
09:00 -1°C° 0 mm 2 m/s 735 mmHg 84%
10:00 +1°C° 0 mm 2 m/s 735 mmHg 77%
11:00 +2°C° 0 mm 2 m/s 736 mmHg 70%
12:00 +3°C° 0 mm 2 m/s 736 mmHg 64%
13:00 +4°C° 0 mm 2 m/s 736 mmHg 63%
14:00 +5°C° 0 mm 1 m/s 736 mmHg 62%
15:00 +5°C° 0 mm 1 m/s 736 mmHg 61%
16:00 +3°C° 0 mm 1 m/s 736 mmHg 68%
17:00 +2°C° 0 mm 1 m/s 736 mmHg 75%
18:00 +1°C° 0 mm 1 m/s 736 mmHg 82%
19:00 -1°C° 0 mm 2 m/s 736 mmHg 82%
20:00 -1°C° 0 mm 2 m/s 735 mmHg 82%
21:00 -1°C° 0 mm 2 m/s 735 mmHg 81%
22:00 -1°C° 0.3 mm 3 m/s 735 mmHg 84%
23:00 -2°C° 0.3 mm 4 m/s 735 mmHg 87%

24 Janeiro, Domingo

Tempo Temperatura Precipitação Vento Pressão Humidade
00:00 -2°C° 0.3 mm 4 m/s 735 mmHg 89%
01:00 -2°C° 0.7 mm 5 m/s 734 mmHg 89%
02:00 -1°C° 0.7 mm 5 m/s 734 mmHg 89%
03:00 -1°C° 0.7 mm 5 m/s 734 mmHg 89%
04:00 -2°C° 0.1 mm 5 m/s 734 mmHg 89%
05:00 -2°C° 0.1 mm 5 m/s 734 mmHg 88%
06:00 -3°C° 0.1 mm 6 m/s 734 mmHg 88%
07:00 -3°C° 0.1 mm 6 m/s 734 mmHg 86%
08:00 -2°C° 0.1 mm 5 m/s 735 mmHg 84%
09:00 -2°C° 0.1 mm 5 m/s 735 mmHg 82%
10:00 -2°C° 0 mm 6 m/s 736 mmHg 82%
11:00 -1°C° 0 mm 6 m/s 736 mmHg 81%
12:00 -1°C° 0 mm 6 m/s 737 mmHg 80%
13:00 +1°C° 0 mm 6 m/s 737 mmHg 80%
14:00 +1°C° 0 mm 6 m/s 737 mmHg 80%
15:00 0°C° 0 mm 7 m/s 738 mmHg 80%
16:00 -1°C° 0 mm 6 m/s 738 mmHg 80%
17:00 -2°C° 0 mm 6 m/s 738 mmHg 80%
18:00 -1°C° 0 mm 5 m/s 739 mmHg 80%
19:00 -2°C° 0.1 mm 6 m/s 739 mmHg 83%
20:00 -1°C° 0.1 mm 7 m/s 739 mmHg 86%
21:00 -1°C° 0.1 mm 9 m/s 739 mmHg 88%
22:00 -1°C° 0.1 mm 8 m/s 739 mmHg 88%
23:00 -1°C° 0.1 mm 7 m/s 739 mmHg 88%

25 Janeiro, Segunda-feira

Tempo Temperatura Precipitação Vento Pressão Humidade
00:00 -1°C° 0.1 mm 6 m/s 740 mmHg 87%
01:00 -1°C° 0 mm 6 m/s 740 mmHg 88%
02:00 -1°C° 0 mm 6 m/s 740 mmHg 89%
03:00 0°C° 0 mm 5 m/s 741 mmHg 90%
04:00 0°C° 0 mm 5 m/s 741 mmHg 90%
05:00 0°C° 0 mm 5 m/s 742 mmHg 91%
06:00 -1°C° 0 mm 5 m/s 742 mmHg 91%
07:00 -1°C° 0 mm 5 m/s 743 mmHg 91%
08:00 -1°C° 0 mm 4 m/s 743 mmHg 91%
09:00 -1°C° 0 mm 4 m/s 744 mmHg 91%
10:00 0°C° 0 mm 5 m/s 745 mmHg 89%
11:00 +1°C° 0 mm 5 m/s 745 mmHg 86%
12:00 +2°C° 0 mm 6 m/s 746 mmHg 84%
13:00 +2°C° 0 mm 6 m/s 746 mmHg 84%
14:00 +2°C° 0 mm 6 m/s 746 mmHg 85%
15:00 +2°C° 0 mm 6 m/s 746 mmHg 86%
16:00 +1°C° 0 mm 5 m/s 747 mmHg 87%
17:00 0°C° 0 mm 4 m/s 747 mmHg 89%
18:00 -1°C° 0 mm 4 m/s 748 mmHg 90%
19:00 0°C° 0 mm 3 m/s 748 mmHg 90%
20:00 -1°C° 0 mm 3 m/s 748 mmHg 90%
21:00 -1°C° 0 mm 3 m/s 749 mmHg 90%
22:00 -1°C° 0 mm 2 m/s 749 mmHg 90%
23:00 -1°C° 0 mm 2 m/s 749 mmHg 89%
Mostrar mais